[[{"header":{"parameterUnit":"m.s-1","parameterCategory":1,"la1":30.2991,"la2":30.254,"lo1":-89.0895,"lo2":-89.0444,"dy":0.0017,"dx":0.0017,"nx":28,"ny":28,"refTime":"2024-04-06T03:00:00:Z","depth":0,"parameterNumber":2,"parameterNumberName":"U-component_of_WINDS"},"data":[0,0,0,0,0,0,0,0,0,0,0,0,0,0,0,0,0,0,0,0,0,0,0,0,0,0,0,0,0,0,0,0,0,0,0,0,0,0,0,0,0,0,0,0,0,0,0,0,0,0,0,0,0,0,0,0,0,0,-3.1298,-3.1299,0,-3.1405,-3.1406,-3.1407,-3.1369,-3.1367,-3.1364,-3.1362,-3.1473,-3.1478,-3.1483,0,0,0,0,0,0,0,0,0,0,0,0,0,-3.1061,-3.1066,-3.1298,-3.1299,-3.1301,-3.1405,-3.1406,-3.1408,-3.1369,-3.1367,-3.1364,-3.1361,-3.1471,-3.1477,-3.1484,0,0,0,0,0,0,0,0,0,0,0,0,0,-3.1166,-3.1067,-3.1298,-3.1294,-3.1295,-3.1404,-3.1406,-3.1408,-3.137,-3.1366,-3.1363,-3.136,-3.1469,-3.1477,-3.1484,-3.1604,0,0,-3.1508,-3.1512,0,0,0,0,0,0,0,0,-3.116,-3.1174,-3.1293,-3.1295,-3.1296,-3.137,-3.1363,-3.1474,-3.1371,-3.1342,-3.1362,-3.1358,-3.1442,-3.1451,-3.1479,-3.1609,-3.1614,-3.1509,-3.1514,-3.1517,-3.1519,0,0,0,0,0,0,0,-3.1152,-3.117,-3.134,-3.1295,-3.1297,-3.1287,-3.1298,-3.1384,-3.1411,-3.1344,-3.1341,-3.1354,-3.1442,-3.1472,-3.1482,-3.1616,-3.1509,-3.1516,-3.152,-3.1523,-3.1847,-3.1851,0,0,0,0,0,0,-3.1145,-3.1164,-3.1337,-3.1343,-3.1217,-3.1294,-3.1306,-3.135,-3.1409,-3.1415,-3.1357,-3.1352,-3.1461,-3.1473,-3.1486,-3.1628,-3.1517,-3.1524,-3.1529,-3.1843,-3.1848,-3.1852,0,0,0,0,0,0,-3.114,-3.116,-3.1333,-3.1253,-3.1274,-3.1302,-3.1351,-3.1354,-3.1384,-3.142,-3.1424,-3.1384,-3.1458,-3.1475,-3.1574,-3.1631,-3.1528,-3.1535,-3.1838,-3.1845,-3.185,-3.1915,0,0,0,0,0,0,-3.1133,-3.1159,-3.1205,-3.1254,-3.1279,-3.142,-3.1355,-3.1358,-3.1397,-3.1392,-3.1445,-3.1451,-3.1457,-3.1563,-3.1582,-3.164,-3.1541,-3.1833,-3.1841,-3.1848,-3.1908,-3.1923,-3.1935,0,0,0,0,0,-3.1125,-3.122,-3.1208,-3.1229,-3.1337,-3.1423,-3.1437,-3.1441,-3.1402,-3.1448,-3.1471,-3.1449,-3.1622,-3.1573,-3.1595,-3.1656,-3.183,-3.1839,-3.1848,-3.1902,-3.192,-3.1935,0,0,0,0,0,0,-3.1178,-3.1226,-3.1213,-3.1327,-3.1371,-3.1417,-3.1475,-3.146,-3.1517,-3.1509,-3.1512,-3.1525,-3.1627,-3.1652,-3.1597,-3.1774,-3.172,-3.1734,-3.1754,-3.1771,-3.1785,-3.1776,-3.1547,0,0,0,0,0,-3.1202,-3.1269,-3.1308,-3.1405,-3.1427,-3.1448,-3.1486,-3.1485,-3.1531,-3.1549,-3.1579,-3.1625,-3.1689,-3.1732,-3.1793,-3.1911,-3.1922,-3.1964,-3.1977,-3.1988,-3.2,-3.2062,-3.208,-3.1881,-3.1881,-3.1881,0,0,-3.1255,-3.1289,-3.1331,-3.1416,-3.145,-3.1518,-3.1464,-3.1539,-3.1589,-3.1561,-3.1656,-3.168,-3.1731,-3.184,-3.1889,-3.1863,-3.2057,-3.1999,-3.2008,-3.2014,-3.2073,-3.2092,-3.2108,-3.1887,-3.1886,-3.1885,0,0,-3.1384,-3.1418,-3.1501,-3.1536,-3.1587,-3.16,-3.162,-3.1668,-3.1682,-3.1777,-3.1757,-3.1817,-3.1928,-3.1965,-3.1998,-3.2139,-3.2121,-3.2159,-3.2229,-3.229,-3.2306,-3.2319,-3.2368,-3.2386,-3.2171,-3.2171,-3.2171,0,-3.1443,-3.1544,-3.1546,-3.1622,-3.1659,-3.1636,-3.1719,-3.1753,-3.1823,-3.1849,-3.1819,-3.1956,-3.1989,-3.2105,-3.2139,-3.2168,-3.219,-3.2153,-3.2303,-3.2317,-3.233,-3.2376,-3.2395,-3.2175,-3.2174,-3.2174,-3.2174,0,-3.1613,-3.1683,-3.1744,-3.1811,-3.1855,-3.1934,-3.1948,-3.1992,-3.1987,-3.2002,-3.2099,-3.2137,-3.2205,-3.2233,-3.2229,-3.2348,-3.233,-3.2302,-3.2247,-3.2353,-3.2397,-3.2415,-3.2181,-3.2179,-3.2178,-3.2177,0,0,-3.178,-3.1844,-3.1866,-3.1895,-3.195,-3.2004,-3.2082,-3.2147,-3.2185,-3.2233,-3.2298,-3.2391,-3.2365,-3.2402,-3.2402,-3.2456,-3.2563,-3.2421,-3.2422,-3.2444,-3.2694,-3.2713,-3.2734,-3.2551,-3.2554,-3.2557,-3.2689,0,-3.1912,-3.2048,-3.2051,-3.2176,-3.224,-3.2218,-3.2286,-3.2326,-3.2342,-3.2399,-3.2417,-3.2483,-3.2444,-3.2466,-3.2518,-3.2539,-3.2613,-3.2529,-3.261,-3.2613,-3.2597,-3.2757,-3.2779,-3.2902,-3.2706,-3.2709,-3.2711,0,-3.2086,-3.2138,-3.2269,-3.2312,-3.2339,-3.24,-3.2458,-3.2513,-3.2558,-3.2566,-3.2607,-3.2598,-3.2677,-3.262,-3.2728,-3.2671,-3.2704,-3.272,-3.2725,-3.2731,-3.2668,-3.2767,-3.2941,-3.2959,-3.2738,-3.2736,-3.2734,0,-3.2192,-3.2295,-3.2386,-3.2412,-3.2465,-3.2508,-3.2532,-3.2573,-3.2611,-3.2663,-3.2687,-3.2748,-3.2781,-3.2828,-3.2835,-3.2794,-3.2943,-3.2887,-3.295,-3.295,-3.2982,-3.298,-3.3162,-3.3006,-3.3006,-3.3005,-3.3005,0,-3.2339,-3.242,-3.2434,-3.249,-3.2579,-3.2581,-3.2669,-3.269,-3.2727,-3.2786,-3.2771,-3.2826,-3.2834,-3.2891,-3.2898,-3.2985,-3.3,-3.3008,-3.3009,-3.3009,-3.3008,-3.303,-3.3021,-3.301,-3.3009,-3.3008,-3.3007,0,-3.2473,-3.2486,-3.2583,-3.2625,-3.2637,-3.2701,-3.2736,-3.2789,-3.2803,-3.2878,-3.2896,-3.2918,-3.2984,-3.2996,-3.3076,-3.308,-3.3183,-3.3176,-3.3168,-3.3166,-3.3228,-3.3221,-3.343,-3.3457,-3.3284,-3.3286,-3.3287,0,-3.2565,-3.2627,-3.2674,-3.2712,-3.2738,-3.28,-3.2838,-3.2842,-3.2883,-3.2937,-3.2983,-3.3048,-3.31,-3.3207,-3.323,-3.329,-3.3283,-3.3352,-3.3292,-3.3289,-3.3282,-3.3277,-3.3283,-3.3363,-3.3365,-3.3367,-3.3368,0,-3.2728,-3.273,-3.2786,-3.2844,-3.289,-3.2936,-3.2979,-3.3011,-3.3021,-3.3067,-3.3134,-3.3175,-3.3254,-3.3318,-3.3377,-3.3401,-3.3386,-3.3387,-3.3404,-3.3404,-3.3396,-3.3399,-3.3197,-3.3382,-3.338,-3.3379,-3.3379,-3.3378,-3.2842,-3.2895,-3.2936,-3.2998,-3.303,-3.3071,-3.3122,-3.3141,-3.3197,-3.3262,-3.3261,-3.3334,-3.3376,-3.3453,-3.3481,-3.3538,-3.3516,-3.3542,-3.3548,-3.3554,-3.3559,-3.3388,-3.3549,-3.3549,-3.3548,-3.3548,-3.3548,0,-3.3002,-3.3027,-3.3084,-3.3144,-3.3192,-3.3173,-3.322,-3.3261,-3.3326,-3.3365,-3.3416,-3.3492,-3.3554,-3.3581,-3.3641,-3.3681,-3.3675,-3.3697,-3.3693,-3.3698,-3.3576,-3.3554,-3.37,-3.37,-3.37,-3.37,-3.37,-3.37,-3.309,-3.3177,-3.3185,-3.3287,-3.3311,-3.3382,-3.341,-3.3447,-3.3478,-3.3563,-3.3614,-3.3631,-3.3665,-3.3727,-3.3782,-3.3789,-3.3811,-3.3835,-3.3838,-3.3723,-3.3707,-3.3693,-3.3672,-3.384,-3.384,-3.3955,-3.3956,-3.3957]},{"header":{"parameterUnit":"m.s-1","parameterCategory":1,"la1":30.2991,"la2":30.254,"lo1":-89.0895,"lo2":-89.0444,"dy":0.0017,"dx":0.0017,"nx":28,"ny":28,"refTime":"2024-04-06T03:00:00:Z","depth":0,"parameterNumber":3,"parameterNumberName":"V-component_of_WINDS"},"data":[0,0,0,0,0,0,0,0,0,0,0,0,0,0,0,0,0,0,0,0,0,0,0,0,0,0,0,0,0,0,0,0,0,0,0,0,0,0,0,0,0,0,0,0,0,0,0,0,0,0,0,0,0,0,0,0,0,0,-2.869,-2.869,0,-2.8695,-2.8695,-2.8695,-2.8646,-2.8644,-2.8643,-2.8642,-2.8647,-2.8648,-2.865,0,0,0,0,0,0,0,0,0,0,0,0,0,-2.8637,-2.8638,-2.869,-2.869,-2.869,-2.8695,-2.8695,-2.8695,-2.8646,-2.8644,-2.8643,-2.8641,-2.8646,-2.8648,-2.865,0,0,0,0,0,0,0,0,0,0,0,0,0,-2.8653,-2.8639,-2.869,-2.8666,-2.8664,-2.8695,-2.8695,-2.8695,-2.8646,-2.8644,-2.8642,-2.864,-2.8646,-2.8648,-2.865,-2.8704,0,0,-2.8656,-2.8657,0,0,0,0,0,0,0,0,-2.8652,-2.8655,-2.8669,-2.8668,-2.8665,-2.8667,-2.8678,-2.8698,-2.8647,-2.8653,-2.8642,-2.8639,-2.8655,-2.8657,-2.8662,-2.8704,-2.8704,-2.8657,-2.8658,-2.8659,-2.8659,0,0,0,0,0,0,0,-2.8651,-2.8654,-2.8692,-2.867,-2.8667,-2.8655,-2.8655,-2.8681,-2.8666,-2.8652,-2.8649,-2.865,-2.8654,-2.866,-2.8662,-2.8704,-2.8656,-2.8658,-2.866,-2.866,-2.8787,-2.879,0,0,0,0,0,0,-2.8653,-2.8654,-2.8691,-2.8692,-2.8654,-2.8657,-2.8657,-2.8669,-2.8665,-2.8663,-2.8652,-2.8648,-2.8657,-2.8659,-2.8662,-2.8722,-2.8659,-2.8661,-2.8662,-2.8785,-2.8788,-2.879,0,0,0,0,0,0,-2.8652,-2.8657,-2.8691,-2.8672,-2.8675,-2.866,-2.8674,-2.867,-2.8676,-2.8665,-2.8661,-2.8661,-2.8656,-2.8659,-2.8693,-2.8722,-2.8662,-2.8664,-2.8783,-2.8786,-2.8789,-2.8845,0,0,0,0,0,0,-2.8651,-2.8657,-2.8677,-2.8673,-2.8676,-2.8723,-2.8676,-2.8672,-2.868,-2.8675,-2.8673,-2.867,-2.8655,-2.869,-2.8695,-2.8724,-2.8665,-2.878,-2.8784,-2.8788,-2.8841,-2.885,-2.8858,0,0,0,0,0,-2.8649,-2.8694,-2.8679,-2.8684,-2.8702,-2.8725,-2.8727,-2.8708,-2.8682,-2.8703,-2.8695,-2.867,-2.8718,-2.8694,-2.8699,-2.8729,-2.8778,-2.8783,-2.8788,-2.8837,-2.8848,-2.8858,0,0,0,0,0,0,-2.8703,-2.8693,-2.8676,-2.8721,-2.8724,-2.8717,-2.8742,-2.8721,-2.8732,-2.8726,-2.8702,-2.8702,-2.874,-2.8738,-2.8711,-2.8779,-2.8744,-2.875,-2.8779,-2.879,-2.8798,-2.8797,-2.8667,0,0,0,0,0,-2.872,-2.874,-2.873,-2.877,-2.8772,-2.8757,-2.8766,-2.8751,-2.8753,-2.8755,-2.875,-2.8753,-2.8768,-2.8779,-2.8793,-2.884,-2.8838,-2.8863,-2.8872,-2.8879,-2.8884,-2.8907,-2.8917,-2.8806,-2.8806,-2.8806,0,0,-2.8756,-2.8752,-2.8766,-2.8781,-2.8781,-2.8801,-2.8758,-2.8782,-2.8796,-2.8758,-2.879,-2.8786,-2.8788,-2.8829,-2.8846,-2.8828,-2.8914,-2.8885,-2.8891,-2.8892,-2.8913,-2.8924,-2.8933,-2.8809,-2.8809,-2.8808,0,0,-2.883,-2.8831,-2.8863,-2.8864,-2.8866,-2.8855,-2.8862,-2.8858,-2.8854,-2.8885,-2.8856,-2.8873,-2.8901,-2.8902,-2.8907,-2.898,-2.8957,-2.8986,-2.903,-2.9053,-2.9061,-2.9069,-2.9093,-2.9103,-2.8991,-2.8991,-2.8991,0,-2.8874,-2.8904,-2.8882,-2.8907,-2.8913,-2.8879,-2.8911,-2.8913,-2.892,-2.8924,-2.8904,-2.8937,-2.8936,-2.8975,-2.8993,-2.8998,-2.9005,-2.8985,-2.9062,-2.9069,-2.9076,-2.9099,-2.9109,-2.8994,-2.8994,-2.8994,-2.8993,0,-2.8957,-2.8977,-2.9003,-2.9009,-2.9018,-2.9047,-2.9029,-2.9041,-2.9025,-2.9015,-2.9047,-2.9044,-2.9056,-2.9064,-2.9049,-2.9101,-2.9089,-2.9066,-2.9029,-2.909,-2.9111,-2.912,-2.8999,-2.8998,-2.8997,-2.8996,0,0,-2.9067,-2.9058,-2.9068,-2.9069,-2.9067,-2.9083,-2.9109,-2.912,-2.913,-2.9135,-2.9155,-2.9179,-2.9156,-2.9161,-2.9146,-2.9166,-2.9222,-2.914,-2.9139,-2.9154,-2.9277,-2.9294,-2.9304,-2.9207,-2.9209,-2.921,-2.9276,0,-2.9138,-2.9182,-2.9162,-2.9208,-2.9226,-2.9193,-2.9215,-2.9216,-2.9208,-2.9222,-2.9213,-2.9229,-2.9199,-2.9202,-2.922,-2.9211,-2.9246,-2.9207,-2.9225,-2.9226,-2.9224,-2.9316,-2.9334,-2.9396,-2.9285,-2.9286,-2.9287,0,-2.9227,-2.9234,-2.9282,-2.9274,-2.9281,-2.9302,-2.9309,-2.9323,-2.9323,-2.9315,-2.932,-2.93,-2.9324,-2.9288,-2.9321,-2.9294,-2.93,-2.9297,-2.9299,-2.9299,-2.9259,-2.9317,-2.9416,-2.9425,-2.93,-2.9299,-2.9298,0,-2.93,-2.9322,-2.9352,-2.9355,-2.9348,-2.9362,-2.936,-2.9358,-2.9365,-2.9371,-2.9375,-2.9385,-2.939,-2.9398,-2.938,-2.9356,-2.9414,-2.9377,-2.9408,-2.9408,-2.9421,-2.942,-2.9521,-2.9427,-2.9427,-2.9427,-2.9427,0,-2.9381,-2.9411,-2.9385,-2.9403,-2.9435,-2.9412,-2.9444,-2.9438,-2.9436,-2.9453,-2.9425,-2.9441,-2.9417,-2.9431,-2.9417,-2.9445,-2.9448,-2.9442,-2.9437,-2.9443,-2.9444,-2.9446,-2.9441,-2.9429,-2.9429,-2.9428,-2.9428,0,-2.9468,-2.9452,-2.9482,-2.9472,-2.947,-2.9494,-2.9485,-2.9502,-2.9491,-2.9512,-2.9516,-2.95,-2.9514,-2.9497,-2.951,-2.9501,-2.9538,-2.9528,-2.9538,-2.9534,-2.9565,-2.9561,-2.967,-2.9682,-2.9582,-2.9583,-2.9584,0,-2.952,-2.9542,-2.9534,-2.9542,-2.9541,-2.9556,-2.9562,-2.954,-2.9548,-2.9548,-2.9564,-2.9576,-2.9584,-2.9608,-2.9597,-2.9606,-2.9596,-2.9633,-2.9597,-2.9601,-2.9594,-2.9592,-2.9594,-2.964,-2.9641,-2.9642,-2.9643,0,-2.9614,-2.9604,-2.9614,-2.9621,-2.963,-2.9634,-2.9637,-2.9646,-2.9622,-2.9632,-2.9646,-2.9652,-2.9664,-2.9676,-2.9682,-2.9679,-2.9657,-2.9654,-2.9662,-2.9667,-2.9671,-2.9668,-2.9556,-2.9652,-2.9651,-2.965,-2.965,-2.9649,-2.9684,-2.9701,-2.9697,-2.9708,-2.9708,-2.971,-2.9724,-2.9715,-2.9726,-2.9733,-2.972,-2.9737,-2.9734,-2.974,-2.9739,-2.9752,-2.9736,-2.9747,-2.9749,-2.9752,-2.9755,-2.967,-2.9753,-2.9753,-2.9752,-2.9752,-2.9752,0,-2.9774,-2.977,-2.9781,-2.9784,-2.9793,-2.9771,-2.9772,-2.9781,-2.9796,-2.9795,-2.9803,-2.9818,-2.9828,-2.9818,-2.9826,-2.9838,-2.9828,-2.984,-2.9839,-2.9838,-2.977,-2.9762,-2.9848,-2.9848,-2.9848,-2.9848,-2.9848,-2.9848,-2.9822,-2.9849,-2.9839,-2.9864,-2.9859,-2.9875,-2.9877,-2.9879,-2.9878,-2.9895,-2.9903,-2.9896,-2.9891,-2.9898,-2.9906,-2.9903,-2.9907,-2.9923,-2.9916,-2.9853,-2.9843,-2.9834,-2.9826,-2.9924,-2.9924,-2.9982,-2.9983,-2.9983]}]]